STARLINK-31957, 59926

Orbit data source: Space-Track

STARLINK-31957, 59926 is a payload satellite owned by SpaceX/Seattle (US) in LEO that was launched on Sat, 01 Jun 2024 UTC via an FALCON 9 launch vehicle from the Air Force Eastern Test Range (AFETR). Payload-class satellites include a variety of spacecraft equipped with specific instruments for various scientific and technological missions. These include communications satellites like Starlink; space stations such as the ISS; scientific satellites like the Hubble; Earth observation satellites from companies like Planet Labs, Umbra, and HawkEye 360; GPS; miniature CubeSats for education and research; and military/defense satellites.

Loading next visibility...
Identifier
59926, 2024-106E
Orbit
LEO
Last TLE update
1 day ago
Origin
Manufacturer
SpaceX/Seattle
Mission
Operational spacecraft
Bus & Motor
STARLINK V2M, Unknown motor
Mass
730 kg wet, ~700 kg dry
Launch date (UTC)
2024-06-01 (1 year ago)
Launch vehicle
FALCON 9
Launch site
Air Force Eastern Test Range (AFETR)
Object type
Payload
Rocket body
Debris
Shape & HBR
Unknown
Radar Cross Section
Large (>1 m²)

Expand to show TLE details & history

TLE from 1 day ago
0 STARLINK-31957
1 59926U 24106E   25169.30941442 -.00001679  00000-0 -51486-4 0  9997
2 59926  43.0030  25.2290 0001528 274.4051  85.6627 15.27576792 60148
Epoch: 2025-06-18T07:25Z
TLE epoch observation values (Epoch: 2025-06-18T07:25:33.405Z)
Latitude
0.00003°
Longitude
7.04654°
Altitude
482.755 km
Speed
7.626 km/s
True Right ascension
01h 40m 54s
True Declination
0° 00' 00"
Sunlit
Object was in daylight at epoch
Visualization orbit readout
Latitude
16.99617°
Longitude
20.50147°
Altitude
482.476 km
Speed
7.627 km/s
Apparent Right ascension
03h 59m 23s
Apparent Declination
-11° 17' 16"
Sunlit
Object is in daylight
Visualization observer readout
Local Sidereal Time
17:55:05
Azimuth
49.813° ENE
Elevation
-51.621°
Doppler factor
1
Orbital elements
Apogee altitude
486.052 km
Perigee altitude
483.955 km
Semi-major axis
6,863.14 km
Eccentricity
0.00015
Inclination
43.003°
RAAN
25.229°
Arg. of periapsis
274.4051°
True anomaly
Unknown
Mean anomaly
85.6627°
Eccentric anomaly
Unknown
Mean motion
3.81732 °/min
Orbital period
94.31 mins
BSTAR
-0.000051486
Loading maneuver chart data...
Loading SW <> Apogee altitude chart data...
Loading historical data...
Loading historical data...
Loading historical data...
Loading historical data...
Loading historical data...
Loading historical data...
Loading historical data...

STARLINK-31957 Visibility forecast

Observer location: undefined°, undefined°

Span
Click to sort rows by Start time (UTC) header in descending order
Start Az.
Max El. time (UTC)
Max El. Az.
Max El.
End time (UTC)
End Az.
5 mins2025-06-19 16:33:30.006Z186.695° SSW2025-06-19 16:36:30.006Z133.35° SE16.794°2025-06-19 16:38:30.006Z100.756° ESE
5 mins2025-06-19 18:12:30.006Z241.431° WSW2025-06-19 18:14:30.006Z173.93° S44.182°2025-06-19 18:17:30.006Z74.294° E
5 mins2025-06-19 19:51:30.006Z287.046° WNW2025-06-19 19:53:30.006Z345.65° N38.216°2025-06-19 19:56:30.006Z70.64° E
6 mins2025-06-19 21:30:30.006Z292.559° NW2025-06-19 21:32:30.006Z329.619° NNW42.258°2025-06-19 21:36:30.006Z99.411° ESE
5 mins2025-06-19 23:09:30.006Z264.308° W2025-06-19 23:11:30.006Z216.195° SW28.449°2025-06-19 23:14:30.006Z149.799° SSE
|